Muncie, IN

6:19 AM EDT on March 24, 2017 (GMT -0400)
Delaware County-Johnson

Weather History for KMIE - January, 2014

Change the Weather History Date:

Wednesday, January 15, 2014

  Actual Average Record
Temperature  
Mean Temperature 24 °F 26 °F  
Max Temperature 28 °F 34 °F 51 °F (2007)
Min Temperature 19 °F 19 °F -12 °F (2009)
Degree Days  
Heating Degree Days 41 39  
Month to date heating degree days 542 576  
Since 1 July heating degree days 2882 2774  
Cooling Degree Days 0 0  
Month to date cooling degree days 0 0  
Year to date cooling degree days 0 0  
Moisture  
Dew Point 15 °F    
Average Humidity 65    
Maximum Humidity 71    
Minimum Humidity 58    
Precipitation  
Precipitation T in 0.06 in 0.76 in (2007)
Month to date precipitation 0.40 1.10  
Year to date precipitation 0.40 1.10  
Sea Level Pressure  
Sea Level Pressure 30.00 in    
Wind  
Wind Speed 12 mph (West)    
Max Wind Speed 23 mph    
Max Gust Speed 32 mph    
Visibility 7 miles    
Events Snow    
T = Trace of Precipitation, MM = Missing Value Source: NWS Daily Summary

Daily Weather History Graph

Daily Weather History Graph

Search for Another Location

Airport or City:

Trip Planner

Search our weather history database for the weather conditions in past years. The results will help you decide how hot, cold, wet, or windy it might be!

Date:

Astronomy

Jan. 15, 2014 Rise Set
Actual Time 8:02 AM EST 5:40 PM EST
Civil Twilight 7:32 AM EST 6:10 PM EST
Nautical Twilight 6:58 AM EST 6:43 PM EST
Astronomical Twilight 6:26 AM EST 7:16 PM EST
Moon 5:37 PM EST (1/15) 7:17 AM EST (1/15)
Length of Visible Light 10h 37m
Length of Day
9h 38m
Full, 100% of the Moon is Illuminated
Jan 15
Full
Jan 15
Full
Jan 24
Last Quarter
Jan 30
New
Feb 6
First Quarter

Hourly Weather History & Observations

Time (EST) Temp. Windchill Dew Point Humidity Pressure Visibility Wind Dir Wind Speed Gust Speed Precip Events Conditions
12:53 AM 28.0 °F 16.5 °F 18.0 °F 66% 29.89 in 10.0 mi West 15.0 mph 27.6 mph N/A   Overcast
1:12 AM 28.0 °F 16.1 °F 18.0 °F 66% 29.87 in 10.0 mi West 16.1 mph 29.9 mph N/A   Overcast
1:43 AM 27.0 °F 13.9 °F 18.0 °F 69% 29.88 in 10.0 mi West 18.4 mph 26.5 mph N/A   Overcast
1:53 AM 27.0 °F 14.3 °F 18.0 °F 69% 29.89 in 9.0 mi WNW 17.3 mph 28.8 mph 0.00 in Snow Light Snow
2:18 AM 26.1 °F 13.6 °F 17.1 °F 69% 29.89 in 10.0 mi West 16.1 mph 26.5 mph 0.00 in   Overcast
2:53 AM 26.1 °F 14.0 °F 16.0 °F 66% 29.92 in 10.0 mi West 15.0 mph - 0.00 in   Overcast
3:53 AM 25.0 °F 12.2 °F 17.1 °F 72% 29.94 in 6.0 mi West 16.1 mph 28.8 mph 0.00 in Snow Light Snow
4:48 AM 24.8 °F 11.1 °F 17.6 °F 74% 29.93 in 9.0 mi WNW 18.4 mph 25.3 mph 0.00 in   Overcast
4:53 AM 24.1 °F 10.6 °F 16.0 °F 71% 29.95 in 6.0 mi WNW 17.3 mph 25.3 mph 0.00 in Snow Light Snow
5:12 AM 23.0 °F 10.6 °F 17.1 °F 78% 29.94 in 2.0 mi WNW 13.8 mph - 0.00 in Snow Light Snow
5:19 AM 23.0 °F 11.1 °F 18.0 °F 81% 29.94 in 1.5 mi West 12.7 mph - 0.00 in Snow Light Snow
5:24 AM 23.0 °F 11.7 °F 18.0 °F 81% 29.94 in 2.0 mi West 11.5 mph - 0.00 in Snow Light Snow
5:40 AM 23.0 °F 11.7 °F 17.1 °F 78% 29.95 in 7.0 mi West 11.5 mph - 0.00 in Snow Light Snow
5:49 AM 23.0 °F 9.2 °F 15.8 °F 74% 29.95 in 9.0 mi WNW 17.3 mph 21.9 mph 0.00 in   Overcast
5:53 AM 23.0 °F 9.2 °F 16.0 °F 74% 29.98 in 8.0 mi West 17.3 mph 24.2 mph 0.00 in Snow Light Snow
6:53 AM 23.0 °F 13.1 °F 14.0 °F 68% 29.99 in 10.0 mi West 9.2 mph - 0.00 in   Overcast
7:24 AM 21.9 °F 9.8 °F 17.1 °F 82% 29.97 in 2.5 mi West 12.7 mph - 0.00 in Snow Light Snow
7:38 AM 21.9 °F 10.4 °F 17.1 °F 82% 29.98 in 1.5 mi West 11.5 mph - 0.00 in Snow Light Snow
7:53 AM 21.9 °F 11.7 °F 18.0 °F 85% 30.01 in 1.8 mi West 9.2 mph - 0.00 in Snow Light Snow
8:02 AM 21.9 °F 9.8 °F 17.1 °F 82% 29.99 in 3.0 mi WNW 12.7 mph - 0.00 in Snow Light Snow
8:09 AM 21.9 °F 9.2 °F 16.0 °F 78% 29.99 in 1.8 mi West 13.8 mph - 0.00 in Snow Light Snow
8:17 AM 21.9 °F 8.7 °F 16.0 °F 78% 29.99 in 3.0 mi WNW 15.0 mph 21.9 mph 0.00 in Snow Light Snow
8:29 AM 21.9 °F 10.4 °F 15.1 °F 75% 30.00 in 6.0 mi WNW 11.5 mph - 0.00 in Snow Light Snow
8:53 AM 21.9 °F 10.4 °F 15.1 °F 75% 30.04 in 7.0 mi WNW 11.5 mph - 0.00 in   Overcast
9:40 AM 21.9 °F 10.4 °F 16.0 °F 78% 30.03 in 1.8 mi WNW 11.5 mph - 0.00 in Snow Light Snow
9:49 AM 21.2 °F 8.9 °F 15.8 °F 80% 30.03 in 3.0 mi West 12.7 mph - 0.00 in Snow Light Snow
9:53 AM 21.9 °F 10.4 °F 16.0 °F 78% 30.06 in 5.0 mi West 11.5 mph - 0.00 in Snow Light Snow
10:53 AM 21.9 °F 8.7 °F 14.0 °F 72% 30.08 in 10.0 mi WNW 15.0 mph - 0.00 in   Overcast
11:53 AM 23.0 °F 10.1 °F 14.0 °F 68% 30.07 in 10.0 mi NW 15.0 mph 20.7 mph N/A   Scattered Clouds
12:02 PM 24.1 °F 13.7 °F 14.0 °F 65% 30.04 in 10.0 mi NW 10.4 mph - N/A   Mostly Cloudy
12:53 PM 21.9 °F 9.8 °F 14.0 °F 72% 30.05 in 9.0 mi WNW 12.7 mph - N/A   Overcast
1:53 PM 21.9 °F 11.0 °F 15.1 °F 75% 30.05 in 3.0 mi West 10.4 mph - 0.00 in Snow Light Snow
2:53 PM 21.9 °F 9.2 °F 12.9 °F 68% 30.06 in 10.0 mi West 13.8 mph - 0.00 in   Overcast
3:53 PM 21.0 °F 8.1 °F 12.9 °F 71% 30.08 in 10.0 mi West 13.8 mph - N/A   Overcast
4:53 PM 21.0 °F 10.6 °F 12.9 °F 71% 30.08 in 10.0 mi WSW 9.2 mph - 0.00 in   Overcast
5:53 PM 21.0 °F 10.6 °F 14.0 °F 74% 30.09 in 3.0 mi West 9.2 mph - 0.00 in Snow Light Snow
6:03 PM 19.9 °F 10.1 °F 14.0 °F 78% 30.06 in 2.0 mi West 8.1 mph - 0.00 in Snow Light Snow
6:20 PM 19.9 °F 8.6 °F 15.1 °F 81% 30.06 in 5.0 mi West 10.4 mph - 0.00 in Snow Light Snow
6:53 PM 19.9 °F 9.3 °F 14.0 °F 78% 30.09 in 8.0 mi WSW 9.2 mph - 0.00 in   Overcast
7:53 PM 19.9 °F 8.6 °F 12.9 °F 74% 30.09 in 8.0 mi WSW 10.4 mph - 0.00 in Snow Light Snow
8:53 PM 19.9 °F 9.3 °F 10.9 °F 68% 30.09 in 10.0 mi WSW 9.2 mph - 0.00 in   Overcast
9:53 PM 19.9 °F 8.6 °F 10.9 °F 68% 30.08 in 10.0 mi WSW 10.4 mph - 0.00 in   Overcast
10:53 PM 19.0 °F 9.0 °F 10.0 °F 68% 30.06 in 10.0 mi WSW 8.1 mph - N/A   Overcast
11:53 PM 19.0 °F 6.1 °F 10.0 °F 68% 30.04 in 10.0 mi SW 12.7 mph - N/A   Overcast